Location: Casco Volunteer Fire Department
(44.5576°N, 87.6146°W)
Time: 06:03:26
(UTC+00:00)

Cosmos 1656 - Pass Details

Date: 22 January 2026
Orbit: 796 x 848 km, 71.1° (Epoch: 7 February)

Event Time Altitude Azimuth Distance (km) Brightness Sun altitude
Rises 23:28:51 0° 331° (NNW) 3,381 7.0 -7.9°
Reaches altitude 10° 23:31:21 10° 328° (NNW) 2,436 6.3 -8.3°
Maximum altitude 23:36:48 58° 250° (WSW) 949 4.4 -9.2°
Drops below altitude 10° 23:42:08 10° 173° (S) 2,386 6.2 -10.1°
Sets 23:44:33 0° 169° (S) 3,306 6.9 -10.5°
